Weather History for KBMQ - January, 2012

Change the Weather History Date:

Wednesday, January 11, 2012

  Actual Average Record
Temperature  
Mean Temperature 58 °F -  
Max Temperature 75 °F 57 °F 82 °F (2000)
Min Temperature 41 °F 37 °F 21 °F (1997)
Degree Days  
Heating Degree Days 7    
Growing Degree Days 8 (Base 50)    
Moisture  
Dew Point 34 °F    
Average Humidity 48    
Maximum Humidity 73    
Minimum Humidity 19    
Precipitation  
Precipitation 0.00 in - - ()
Sea Level Pressure  
Sea Level Pressure 29.81 in    
Wind  
Wind Speed 9 mph (WNW)    
Max Wind Speed 25 mph    
Max Gust Speed 37 mph    
Visibility 10 miles    
Events      
Averages and records for this station are not official NWS values.
T = Trace of Precipitation, MM = Missing Value Source: NWS Daily Summary

Daily Weather History Graph

Daily Weather History Graph

Search for Another Location

Airport or City:

Trip Planner

Search our weather history database for the weather conditions in past years. The results will help you decide how hot, cold, wet, or windy it might be!

Date:

Astronomy

Jan. 11, 2012 Rise Set
Actual Time 7:31 AM CST 5:50 PM CST
Civil Twilight 7:05 AM CST 6:16 PM CST
Nautical Twilight 6:35 AM CST 6:46 PM CST
Astronomical Twilight 6:06 AM CST 7:15 PM CST
Moon 8:35 PM CST (1/11) 8:56 AM CST (1/11)
Length of Visible Light 11h 11m
Length of Day
10h 18m
Waning Gibbous, 93% of the Moon is Illuminated
Jan 11
Waning Gibbous
Jan 16
Last Quarter
Jan 23
New
Jan 30
First Quarter
Feb 7
Full

Hourly Weather History & Observations

Time (CST) Temp. Windchill Dew Point Humidity Pressure Visibility Wind Dir Wind Speed Gust Speed Precip Events Conditions
12:53 AM 43.0 °F 38.8 °F 33.1 °F 68% 29.88 in 10.0 mi WNW 6.9 mph - N/A   Clear
1:53 AM 44.1 °F 39.0 °F 33.1 °F 65% 29.86 in 10.0 mi WNW 9.2 mph - N/A   Clear
2:53 AM 44.1 °F 39.5 °F 33.1 °F 65% 29.86 in 10.0 mi West 8.1 mph - N/A   Clear
5:53 AM 41.0 °F 36.4 °F 33.1 °F 73% 29.84 in 10.0 mi West 6.9 mph - N/A   Clear
6:53 AM 42.1 °F 37.7 °F 33.1 °F 70% 29.85 in 10.0 mi West 6.9 mph - N/A   Clear
7:53 AM 43.0 °F 40.3 °F 34.0 °F 71% 29.85 in 10.0 mi WSW 4.6 mph - N/A   Clear
8:53 AM 46.9 °F - 36.0 °F 66% 29.85 in 10.0 mi SW 4.6 mph - N/A   Clear
9:53 AM 54.0 °F - 39.0 °F 57% 29.85 in 10.0 mi Calm Calm - N/A   Clear
10:53 AM 60.1 °F - 37.0 °F 42% 29.82 in 10.0 mi SW 5.8 mph - N/A   Clear
11:53 AM 64.0 °F - 37.0 °F 37% 29.77 in 10.0 mi West 8.1 mph - N/A   Clear
12:53 PM 68.0 °F - 37.9 °F 33% 29.72 in 10.0 mi SSW 11.5 mph 17.3 mph N/A   Clear
1:53 PM 73.0 °F - 32.0 °F 22% 29.68 in 10.0 mi WSW 17.3 mph 24.2 mph N/A   Clear
2:53 PM 75.0 °F - 30.9 °F 20% 29.65 in 10.0 mi West 11.5 mph 20.7 mph N/A   Clear
3:53 PM 75.0 °F - 30.0 °F 19% 29.65 in 10.0 mi West 13.8 mph 27.6 mph N/A   Clear
4:53 PM 73.0 °F - 33.1 °F 23% 29.67 in 10.0 mi West 11.5 mph 18.4 mph N/A   Clear
5:53 PM 66.9 °F - 33.1 °F 28% 29.72 in 10.0 mi NW 15.0 mph 25.3 mph N/A   Clear
6:53 PM 63.0 °F - 35.1 °F 35% 29.76 in 10.0 mi NW 12.7 mph 24.2 mph N/A   Clear
7:53 PM 57.0 °F - 32.0 °F 39% 29.82 in 10.0 mi NW 25.3 mph 36.8 mph N/A   Clear
8:53 PM 54.0 °F - 36.0 °F 51% 29.88 in 10.0 mi NNW 18.4 mph 34.5 mph N/A   Clear
9:53 PM 50.0 °F - 36.0 °F 59% 29.93 in 10.0 mi NNW 17.3 mph 21.9 mph N/A   Clear
10:53 PM 46.9 °F - 34.0 °F 61% 29.97 in 10.0 mi North 17.3 mph 28.8 mph N/A   Clear
11:53 PM 45.0 °F 39.3 °F 32.0 °F 60% 29.99 in 10.0 mi NNW 11.5 mph 23.0 mph N/A   Clear